Volver al catálogo

STARLINK-11432

ActivoComunicacionesVLEO
NORAD 62882·PAYLOAD·🇺🇸 United States

Lanzado Feb 4, 2025 desde Cape Canaveral Space Force Station

Loading…

Próximos Pases (próximas 24 horas)

TLE

ActualizadoSource: CelesTrak SupGP

Época: Sep 14, 2026, 21:21 UTC

1 62882C 25024D   26257.89006944 -.00057734  00000+0 -44865-3 0  2575
2 62882  43.0001 121.2375 0001520 273.8295 333.3945 15.70854876    13

Sigue STARLINK-11432 en tiempo real con AllMySat

Download on the App Store